Location: Bakov nad Jizerou
(50.4784°N, 14.9394°E)
Time: 03:50:16
(UTC+00:00)

Cosmos 1727 Rocket - Pass Details

Date: 30 October 2021
Orbit: 960 x 997 km, 82.9° (Epoch: 07 December)

Event Time Altitude Azimuth Distance (km) Brightness Sun altitude
Rises 04:42:00 0° 190° (S) 3,689 7.0 -10.9°
Reaches altitude 10° 04:44:31 10° 191° (S) 2,740 6.3 -10.5°
Maximum altitude 04:50:49 83° 279° (W) 995 4.0 -9.6°
Drops below altitude 10° 04:57:07 10° 9° (N) 2,733 6.3 -8.6°
Sets 04:59:38 0° 10° (N) 3,679 7.0 -8.2°
